This demonstration page uses our WeatherBlox Daily Observations layout. Learn more.

Left ArrowRight Arrow

Hourly Observations for November 4, 2015

Temp ( °F °C ) Dew Point ( °F °C ) Humidity (%) Winds ( mph kmh ) Pressure ( in mb ) Visibility ( mi km ) Precip ( " mm )
12:53 am 00:53 Clear 62 16.7 57 13.9 84 84 SE 13 20 29.79 1009 10 16 0.00 0.00
1:53 am 01:53 Clear 61 16.1 57 13.9 87 87 SE 15 24 29.78 1008 10 16 0.00 0.00
2:53 am 02:53 Clear 60 15.6 56 13.3 86 86 SE 13 20 29.79 1009 10 16 0.00 0.00
3:53 am 03:53 Clear 60 15.6 56 13.3 86 86 SE 15 24 29.78 1008 10 16 0.00 0.00
4:53 am 04:53 Clear 58 14.4 55 12.8 90 90 SE 12 19 29.78 1008 10 16 0.00 0.00
5:53 am 05:53 Clear 59 15 56 13.3 90 90 SSE 10 17 29.80 1009 10 16 0.00 0.00
6:53 am 06:53 Clear 57 13.9 55 12.8 93 93 SSE 7 11 29.84 1010 10 16 0.00 0.00
7:53 am 07:53 Sunny 58 14.4 56 13.3 93 93 SE 8 13 29.85 1011 7 11 0.00 0.00
8:31 am 08:31 Mostly Sunny 61 16.1 58 14.4 90 90 SE 12 19 29.88 1012 10 16 0.00 0.00
8:53 am 08:53 Mostly Sunny 63 17.2 58 14.4 84 84 SSE 14 22 29.87 1012 10 16 0.00 0.00
9:53 am 09:53 Sunny 68 20 58 14.4 70 70 SSE 15 24 29.88 1012 10 16 0.00 0.00
10:53 am 10:53 Sunny 72 22.2 58 14.4 61 61 SSE 13 20 29.86 1011 10 16 0.00 0.00
11:53 am 11:53 Sunny 75 23.9 56 13.3 52 52 SSE 13 20 29.84 1011 10 16 0.00 0.00
12:53 pm 12:53 Sunny 78 25.6 54 12.2 43 43 SSE 9 15 29.80 1009 10 16 0.00 0.00
1:53 pm 13:53 Sunny 80 26.7 50 10 35 35 S 9 15 29.75 1008 10 16 0.00 0.00
2:53 pm 14:53 Sunny 82 27.8 49 9.4 32 32 SSE 10 17 29.73 1007 10 16 0.00 0.00
3:53 pm 15:53 Sunny 82 27.8 54 12.2 38 38 SE 13 20 29.72 1007 10 16 0.00 0.00
4:53 pm 16:53 Sunny 80 26.7 58 14.4 47 47 E 8 13 29.74 1007 10 16 0.00 0.00
5:53 pm 17:53 Sunny 76 24.4 44 6.7 32 32 W 7 11 29.74 1007 10 16 0.00 0.00
6:53 pm 18:53 Clear 68 20 46 7.8 45 45 WSW 7 11 29.77 1008 10 16 0.00 0.00
7:53 pm 19:53 Clear 65 18.3 47 8.3 52 52 SSW 8 13 29.78 1009 10 16 0.00 0.00
8:53 pm 20:53 Clear 68 20 60 15.6 76 76 SE 15 24 29.79 1009 10 16 0.00 0.00
9:53 pm 21:53 Clear 66 18.9 61 16.1 84 84 SE 15 24 29.80 1009 10 16 0.00 0.00
10:53 pm 22:53 Partly Cloudy 65 18.3 61 16.1 87 87 WSW 5 7 29.83 1010 10 16 0.00 0.00
11:05 pm 23:05 Mostly Cloudy 65 18.3 61 16.1 87 87 WSW 6 9 29.85 1011 10 16 0.00 0.00

Powered by AerisWeather